Regional Weather Roundup
Issued by NWS Cleveland, OH

Home | Current Version | Previous Version | Graphics & Text | Print | Product List | Glossary On
Versions: 1 2 3 4 5 6 7 8 9 10 11 12 13 14 15 16 17 18 19 20 21 22 23 24 25 26 27 28 29 30 31 32 33 34 35 36 37 38 39 40 41 42 43 44 45 46 47 48 49 50
202
ASUS41 KCLE 292110
RWRCLE
OHIO REGIONAL WEATHER ROUNDUP
NATIONAL WEATHER SERVICE CLEVELAND, OH
500 PM EDT WED MAR 29 2017

NOTE: "FAIR" INDICATES FEW OR NO CLOUDS BELOW 12,000 FEET WITH NO
SIGNIFICANT WEATHER AND/OR OBSTRUCTIONS TO VISIBILITY.

OHZ001>008-015>018-024>027-034-035-043-044-292200-
   NORTHWEST OHIO

CITY           SKY/WX    TMP DP  RH WIND       PRES   REMARKS
DEFIANCE       MOSUNNY   52  30  43 E15       30.21F
FINDLAY        PTSUNNY   57  33  40 NE17G25   30.19F
TOLEDO EXPRESS PTSUNNY   52  29  41 E13G22    30.23F
TOLEDO EXEC    PTSUNNY   52  31  44 E12       30.25F
LIMA           MOSUNNY   56  39  53 E13       30.18F
$$

OHZ009>014-019>023-028>033-038-089-292200-
   NORTHEAST OHIO

CITY           SKY/WX    TMP DP  RH WIND       PRES   REMARKS
CLE-HOPKINS    PTSUNNY   50  32  50 N12       30.26F
CLE-LAKEFRONT  SUNNY     42  37  82 NE13      30.24F
CUY CO. ARPT   PTSUNNY   52  34  50 NE12G21   30.24F
LORAIN-ELYRIA  SUNNY     49  31  49 NE15      30.23F
ASHTABULA      SUNNY     51  30  44 E9        30.24F
AKRON-CANTON   MOSUNNY   58  32  37 N14       30.18F
WOOSTER        SUNNY     56  32  40 NE7       30.19S
MANSFIELD      SUNNY     57  36  45 NE10      30.18F
YOUNGSTOWN     PTSUNNY   57  30  35 NE9G16    30.19F
$$

OHZ042-051>053-060>062-070>072-077>081-292200-
  SOUTHWEST OHIO

CITY           SKY/WX    TMP DP  RH WIND       PRES   REMARKS
CINC-COVINGTON MOSUNNY   57  45  64 E14G22    30.11S
CINC-LUNKEN    PTSUNNY   58  48  69 NE8       30.13F
HAMILTON       SUNNY     57  45  64 E9        30.14S
DAYTON         MOSUNNY   60  39  45 E13G22    30.13F
WRIGHT-PAT AFB SUNNY     62  40  44 NE9       30.12F
DAYTON GENERAL SUNNY     59  42  53 E14       30.12F
WILMINGTON     SUNNY     56  43  61 E12       30.12F
$$

OHZ036-037-039>041-045>050-054>059-063>069-073>076-082>088-292200-
  CENTRAL AND SOUTHEAST OHIO

CITY           SKY/WX    TMP DP  RH WIND       PRES   REMARKS
COLUMBUS       MOSUNNY   63  36  36 E6        30.14F
OSU AIRPORT    SUNNY     61  37  41 NE9       30.14F
BOLTON FIELD   SUNNY     61  37  41 E3        30.15F
RICKENBACK AFB SUNNY     60  39  46 NE9       30.14F
NEWARK         SUNNY     62  34  35 E9        30.14F
MARION         MOSUNNY   56  39  53 NE10      30.18F
LANCASTER      SUNNY     63  39  41 NE12      30.15F
ZANESVILLE     SUNNY     63  34  33 VRB3      30.15F
NEW PHILLY     NOT AVBL
$$




USA.gov is the U.S. government's official web portal to all federal, state and local government web resources and services.